{"data":{"norad_id":60290,"intl_designator":"2024-132N","name":"STARLINK-32141","alt_names":[],"object_type":"PAYLOAD","status":"ACTIVE","operator":null,"country":"US","launch_date":"2024-07-28","launch_site_code":"AFETR","launch_vehicle":null,"mission":null,"orbit_class":"UNKNOWN","rcs_meters":null,"size_class":null,"mass_kg":null,"dimensions":null,"purposes":["comms"],"wikipedia_slug":null,"has_3d_model":false,"image_url":null,"decayed_at":null,"tle_current":{"epoch":"2026-09-21T14:36:39.543264Z","epoch_age_seconds":86452,"freshness":"FRESH","line1":"1 60290U 24132N   26264.60879101 -.00001128  00000+0 -22258-4 0  9997","line2":"2 60290  53.1591 220.4812 0001366  85.4537 274.6622 15.34389238121582","mean_motion":15.34389238,"eccentricity":0.0001366,"inclination_deg":53.1591,"raan_deg":220.4812,"arg_perigee_deg":85.4537,"mean_anomaly_deg":274.6622,"bstar":-2.2258e-5,"rev_number":12158,"period_min":93.848416316903,"perigee_km":461.8007641798,"apogee_km":463.66969047231,"semimajor_km":6840.8722273261,"source":"CELESTRAK","updated_at":"2026-09-22T09:00:49.193901Z"}}}